Location: Unspecified
(0.0000°N, 0.0000°E)
Time: 21:26:33
(UTC+00:00)

Vela 1B - Visible Passes

Search period start: 29 April 2025 00:00
Search period end: 09 May 2025 00:00
Orbit: 56003 x 161691 km, 46.6° (Epoch: 26 April)

Date Brightness Start Highest point End Pass type
(mag) Time Alt. Az. Time Alt. Az. Time Alt. Az.
29 Apr ? 06:45:44 10° SE 12:29:25 44° S 18:01:57 10° SW visible
30 Apr ? 10:32:08 10° ESE 16:49:55 88° NNE 00:57:50 10° NW daylight
02 May ? 00:58:43 10° ESE 06:33:20 60° S 12:26:00 10° SW visible
03 May ? 04:32:54 10° SE 10:03:40 42° S 15:39:25 10° SW visible
04 May ? 08:12:41 10° SE 14:13:58 55° S 19:52:56 10° WSW visible
05 May ? 21:42:07 10° ENE 04:25:18 90° SSE 10:30:10 10° WSW visible
07 May ? 02:24:09 10° SE 07:51:26 47° S 13:34:20 10° SW visible
08 May ? 06:02:23 10° SE 11:44:58 44° S 17:17:31 10° SW visible
